Starlink 30129

operational
NORAD ID: 56689 Int'l Des: 2023-067 Owner: SPXS Country: US Constellation: starlink
LEOCIRCULAR

About Starlink 30129

Description loading...

Live Position

Loading 3D Globe...

Upcoming Passes

Altitude History

Altitude vs Time

uPlot chart will show altitude changes over time

Two-Line Element Set

1 56689U 23067B 25303.84868744 .00000136 00000-0 25175-4 0 9998
2 56689 43.0116 260.3859 0003210 284.6657 75.3829 15.02536660136129
Epoch: Oct 30, 2025 • Age: 23 hours

Current Status

Altitude 570.0 km
Velocity 7.58 km/s
Sub-Earth Point -41.77°S, 169.28°E
Launch Date May 19, 2023
Age 2.4 years
Type internet

Technical Details

Classification Payload
Mass 730.00 kg
Dry Mass 700.00 kg
Total Mass 730.00 kg
Length 0.30 m
Diameter 4.10 m
Span 29.00 m
Shape Box + pan
Manufacturer SPXS
Bus Type Starlink V2M
Phase Status In Orbit
Owner/State SPXS/US

Large Constellations

Loading constellations...